Location: Chiroubles
(46.1812°N, 4.6660°E)
Time: 02:09:43
(UTC+00:00)

Cosmos 2322 Rocket - Pass Details

Date: 15 August 2020
Orbit: 831 x 852 km, 71.0° (Epoch: 27 September)

Event Time Altitude Azimuth Distance (km) Brightness Sun altitude
Rises 21:55:50 0° 324° (NW) 3,422 6.7 -25.2°
Reaches altitude 10° 21:58:35 10° 313° (NW) 2,485 5.6 -25.5°
Maximum altitude 22:03:20 28° 257° (WSW) 1,553 3.7 -25.9°
Enters shadow 22:04:53 24° 231° (SW) 1,678 3.6 -26.0°
